Погода в Мурунтау

Узбекистан     41°31′29″N   64°36′00″E
темп.,
°C
ветер,
м/с
пор.,
м/с
влажн.,
%
обл.,
%
осадки,
мм/ч
давл.,
гПа
погр.,
м
27 февраля, сб
сб2723:00−6ю3416100 0.0 1031380
02:00−6юз3516100 0.0 1029321
05:00−6ююз3517100 0.0 1029263
08:00−5ююз5818100 0.0 1028395
11:00−2ююз9121593 0.0 1028538
14:00+2ююз10121928 0.0 1027908
17:00+3юз8103341 0.0 10271061
20:00+2юз593998 0.0 1027372
28 февраля, вс
вс2823:000юз473893 0.0 1027169
02:00−1ююз24361 0.0 102695
05:00−1ю22300 0.0 102445
08:00−1ю22220 0.0 102454
11:00+3ю45180 0.0 1022367
14:00+7ю441967 0.0 1020577
17:00+8ююз332281 0.0 1019745
20:00+6юв2327100 0.0 101938
1 марта, пн
пн123:00+4вюв222988 0.0 101922
02:00+3юв22336 0.0 101822
05:00+2юв12373 0.0 101822
08:00+3юв23370 0.0 101822
11:00+9ююв47290 0.0 1018397
14:00+13ю68250 0.0 1016984
17:00+14юз56240 0.0 10161191
20:00+9сз23380 0.0 101726
2 марта, вт
вт223:00+7зсз34400 0.0 101826
02:00+6зсз44400 0.0 101943
05:00+5сз34420 0.0 102029
08:00+4ссз124535 0.0 102223
11:00+8с223358 0.0 1022350
14:00+11сз322956 0.0 1022806
17:00+9ссз443367 0.0 1022580
20:00+6ссз454936 0.0 1023277
3 марта, ср
ср323:00+4ссв226065 0.0 1024106
02:00+3ссв236688 0.0 1023109
05:00+1ссв337494 0.0 1023123
08:00+1св3470100 0.0 1023131
11:00+4в335568 0.0 1023336
14:00+7в224582 0.0 1020752
17:00+8вюв444343 0.0 10191152
20:00+6всв46540 0.0 1018253